| time (UTC) | temp F | wind direction | speed MPH | gust MPH | rain 1hr in | rain 24hr in | rain mn in | humidity % | barometer mb |
| 20260831080106 | 60 | 0 | 0.0 | 2.0 | 0.00 | 0.00 | 0.00 | 54 | 1016.0 |
| 20260831075106 | 59 | 345 | 2.0 | 7.0 | 0.00 | 0.00 | 0.00 | 58 | 1015.9 |
| 20260831074106 | 59 | 328 | 2.0 | 8.0 | 0.00 | 0.00 | 0.00 | 58 | 1015.9 |
| 20260831073106 | 60 | 319 | 4.0 | 8.0 | 0.00 | 0.00 | 0.00 | 56 | 1016.1 |
| 20260831072109 | 61 | 328 | 2.0 | 5.0 | 0.00 | 0.00 | 0.00 | 53 | 1016.2 |
| 20260831071106 | 61 | 311 | 3.0 | 7.0 | 0.00 | 0.00 | 0.00 | 52 | 1016.3 |
| 20260831070106 | 61 | 0 | 0.0 | 0.0 | 0.00 | 0.00 | 0.00 | 51 | 1016.3 |
| 20260831065109 | 61 | 0 | 0.0 | 3.0 | 0.00 | 0.01 | 0.00 | 52 | 1016.4 |
| 20260831064106 | 60 | 0 | 0.0 | 6.0 | 0.00 | 0.02 | 0.00 | 55 | 1016.3 |
| 20260831063106 | 59 | 327 | 1.0 | 11.0 | 0.00 | 0.05 | 0.00 | 57 | 1016.3 |
| 20260831062106 | 59 | 332 | 3.0 | 8.0 | 0.00 | 0.05 | 0.00 | 59 | 1016.2 |
| 20260831061106 | 59 | 316 | 2.0 | 6.0 | 0.00 | 0.06 | 0.00 | 59 | 1016.2 |
| 20260831060106 | 59 | 0 | 0.0 | 10.0 | 0.00 | 0.08 | 0.00 | 60 | 1016.0 |
| 20260831055106 | 58 | 325 | 5.0 | 13.0 | 0.00 | 0.10 | 0.00 | 62 | 1016.1 |
| 20260831054109 | 58 | 315 | 8.0 | 17.0 | 0.00 | 0.11 | 0.00 | 63 | 1016.2 |
| 20260831053108 | 59 | 309 | 10.0 | 17.0 | 0.00 | 0.13 | 0.00 | 63 | 1016.1 |
| 20260831052109 | 61 | 306 | 9.0 | 18.0 | 0.00 | 0.15 | 0.00 | 57 | 1016.1 |
| 20260831051106 | 62 | 302 | 8.0 | 13.0 | 0.00 | 0.18 | 0.00 | 50 | 1016.2 |
| 20260831050109 | 62 | 305 | 8.0 | 13.0 | 0.00 | 0.19 | 0.00 | 51 | 1016.4 |
| 20260831045107 | 62 | 307 | 9.0 | 13.0 | 0.00 | 0.23 | 0.00 | 51 | 1016.4 |
| 20260831044107 | 62 | 303 | 9.0 | 13.0 | 0.00 | 0.37 | 0.00 | 50 | 1016.4 |
| 20260831043106 | 62 | 299 | 7.0 | 13.0 | 0.00 | 0.38 | 0.00 | 50 | 1016.5 |
| 20260831042106 | 62 | 307 | 8.0 | 12.0 | 0.00 | 0.41 | 0.00 | 50 | 1016.5 |
| 20260831041106 | 62 | 305 | 9.0 | 12.0 | 0.00 | 0.59 | 0.00 | 50 | 1016.5 |
| 20260831040108 | 62 | 306 | 8.0 | 11.0 | 0.00 | 0.79 | 0.00 | 50 | 1016.5 |
| 20260831035106 | 62 | 305 | 7.0 | 10.0 | 0.00 | 0.83 | 0.00 | 49 | 1016.5 |
| 20260831034106 | 62 | 315 | 4.0 | 10.0 | 0.00 | 0.86 | 0.00 | 49 | 1016.5 |
| 20260831033106 | 62 | 299 | 6.0 | 9.0 | 0.00 | 1.04 | 0.00 | 49 | 1016.4 |
| 20260831032109 | 62 | 299 | 7.0 | 10.0 | 0.00 | 1.05 | 0.00 | 49 | 1016.3 |
| 20260831031107 | 62 | 306 | 7.0 | 10.0 | 0.00 | 1.05 | 0.00 | 48 | 1016.2 |
| 20260831030106 | 62 | 301 | 7.0 | 10.0 | 0.00 | 1.05 | 0.00 | 48 | 1016.1 |
| 20260831025106 | 62 | 309 | 5.0 | 8.0 | 0.00 | 1.05 | 0.00 | 49 | 1016.1 |
| 20260831024106 | 62 | 306 | 6.0 | 9.0 | 0.00 | 1.05 | 0.00 | 49 | 1015.9 |
| 20260831023106 | 62 | 308 | 5.0 | 9.0 | 0.00 | 1.05 | 0.00 | 47 | 1015.8 |
| 20260831022106 | 62 | 314 | 5.0 | 10.0 | 0.00 | 1.05 | 0.00 | 48 | 1015.5 |
| 20260831021106 | 62 | 306 | 7.0 | 10.0 | 0.00 | 1.05 | 0.00 | 48 | 1015.5 |
| 20260831020106 | 62 | 311 | 5.0 | 8.0 | 0.00 | 1.05 | 0.00 | 49 | 1015.4 |
| 20260831015106 | 63 | 312 | 5.0 | 9.0 | 0.00 | 1.05 | 0.00 | 48 | 1015.4 |
| 20260831014106 | 63 | 310 | 4.0 | 8.0 | 0.00 | 1.05 | 0.00 | 48 | 1015.4 |
| 20260831013106 | 64 | 309 | 5.0 | 10.0 | 0.00 | 1.05 | 0.00 | 47 | 1015.3 |
| 20260831012106 | 64 | 304 | 7.0 | 11.0 | 0.00 | 1.05 | 0.00 | 47 | 1015.2 |
| 20260831011107 | 63 | 288 | 7.0 | 14.0 | 0.00 | 1.05 | 0.00 | 49 | 1015.2 |
| 20260831010109 | 64 | 281 | 7.0 | 15.0 | 0.00 | 1.05 | 0.00 | 49 | 1015.3 |
| 20260831005106 | 65 | 289 | 7.0 | 14.0 | 0.00 | 1.05 | 0.00 | 46 | 1015.3 |
| 20260831004107 | 65 | 285 | 10.0 | 16.0 | 0.00 | 1.05 | 0.00 | 45 | 1015.3 |
| 20260831003106 | 66 | 288 | 7.0 | 17.0 | 0.00 | 1.05 | 0.00 | 46 | 1015.4 |
| 20260831002107 | 66 | 283 | 6.0 | 15.0 | 0.00 | 1.05 | 0.00 | 45 | 1015.3 |
| 20260831001107 | 66 | 282 | 5.0 | 13.0 | 0.00 | 1.05 | 0.00 | 45 | 1015.4 |
| 20260831000106 | 67 | 258 | 7.0 | 12.0 | 0.00 | 1.05 | 0.00 | 44 | 1015.3 |
| 20260830235106 | 67 | 279 | 10.0 | 16.0 | 0.00 | 1.05 | 0.00 | 42 | 1015.3 |
| 20260830234107 | 67 | 280 | 5.0 | 12.0 | 0.00 | 1.05 | 0.00 | 43 | 1015.4 |
| 20260830233106 | 66 | 277 | 7.0 | 15.0 | 0.00 | 1.05 | 0.00 | 43 | 1015.4 |
| 20260830231409 | 66 | 263 | 8.0 | 18.0 | 0.00 | 1.05 | 0.00 | 44 | 1015.6 |
| 20260830230409 | 67 | 260 | 8.0 | 13.0 | 0.00 | 1.05 | 1.08 | 42 | 1015.6 |
| 20260830225409 | 67 | 274 | 7.0 | 13.0 | 0.00 | 1.05 | 1.08 | 40 | 1015.8 |
| 20260830224409 | 67 | 286 | 5.0 | 13.0 | 0.00 | 1.05 | 1.08 | 41 | 1015.8 |
| 20260830223409 | 66 | 275 | 6.0 | 15.0 | 0.00 | 1.05 | 1.08 | 44 | 1016.0 |
| 20260830222410 | 67 | 202 | 2.0 | 12.0 | 0.00 | 1.05 | 1.08 | 42 | 1016.0 |
| 20260830221409 | 68 | 316 | 3.0 | 10.0 | 0.00 | 1.05 | 1.08 | 42 | 1016.1 |
| 20260830220409 | 68 | 315 | 6.0 | 11.0 | 0.00 | 1.05 | 1.08 | 38 | 1016.5 |
| 20260830215409 | 68 | 284 | 6.0 | 11.0 | 0.00 | 1.05 | 1.08 | 38 | 1016.6 |
| 20260830213808 | 67 | 262 | 3.0 | 11.0 | 0.00 | 1.05 | 1.08 | 42 | 1016.7 |
| 20260830212808 | 66 | 233 | 5.0 | 12.0 | 0.00 | 1.05 | 1.08 | 44 | 1016.9 |
| 20260830211808 | 67 | 249 | 6.0 | 13.0 | 0.00 | 1.05 | 1.08 | 44 | 1017.0 |
| 20260830210810 | 66 | 253 | 7.0 | 14.0 | 0.00 | 1.05 | 1.08 | 41 | 1017.1 |
| 20260830205808 | 66 | 249 | 8.0 | 16.0 | 0.00 | 1.05 | 1.08 | 38 | 1017.2 |
| 20260830204808 | 66 | 262 | 7.0 | 12.0 | 0.00 | 1.05 | 1.08 | 43 | 1017.3 |
| 20260830203808 | 67 | 236 | 4.0 | 10.0 | 0.00 | 1.05 | 1.08 | 40 | 1017.4 |
| 20260830202808 | 66 | 251 | 3.0 | 12.0 | 0.00 | 1.05 | 1.08 | 44 | 1017.5 |
| 20260830201808 | 66 | 264 | 5.0 | 10.0 | 0.00 | 1.05 | 1.08 | 49 | 1017.6 |
| 20260830200810 | 65 | 259 | 3.0 | 10.0 | 0.00 | 1.05 | 1.08 | 49 | 1017.6 |
| 20260830195808 | 66 | 266 | 4.0 | 10.0 | 0.00 | 1.05 | 1.08 | 48 | 1017.7 |
| 20260830194809 | 65 | 256 | 2.0 | 9.0 | 0.00 | 1.05 | 1.08 | 46 | 1017.7 |
| 20260830193808 | 65 | 267 | 5.0 | 10.0 | 0.00 | 1.05 | 1.08 | 49 | 1017.8 |
| 20260830192808 | 65 | 255 | 6.0 | 11.0 | 0.00 | 1.05 | 1.08 | 48 | 1017.9 |
| 20260830191808 | 65 | 268 | 3.0 | 10.0 | 0.00 | 1.05 | 1.08 | 49 | 1017.8 |
| 20260830190808 | 64 | 278 | 3.0 | 11.0 | 0.00 | 1.05 | 1.08 | 48 | 1018.0 |
| 20260830185808 | 63 | 293 | 6.0 | 13.0 | 0.00 | 1.05 | 1.08 | 50 | 1018.1 |
| 20260830184809 | 63 | 287 | 8.0 | 15.0 | 0.00 | 1.05 | 1.08 | 52 | 1018.1 |
| 20260830183808 | 62 | 288 | 5.0 | 14.0 | 0.00 | 1.05 | 1.08 | 56 | 1018.2 |
| 20260830182808 | 62 | 257 | 6.0 | 17.0 | 0.00 | 1.05 | 1.08 | 55 | 1018.3 |
| 20260830181808 | 62 | 292 | 5.0 | 15.0 | 0.00 | 1.05 | 1.08 | 54 | 1018.4 |
| 20260830180808 | 62 | 287 | 5.0 | 16.0 | 0.00 | 1.05 | 1.08 | 56 | 1018.5 |
| 20260830175808 | 61 | 273 | 9.0 | 17.0 | 0.00 | 1.05 | 1.08 | 57 | 1018.5 |
| 20260830174808 | 61 | 277 | 12.0 | 17.0 | 0.00 | 1.05 | 1.08 | 57 | 1018.5 |
| 20260830173808 | 61 | 266 | 8.0 | 17.0 | 0.00 | 1.05 | 1.08 | 58 | 1018.5 |
| 20260830172808 | 60 | 263 | 10.0 | 18.0 | 0.00 | 1.05 | 1.08 | 59 | 1018.4 |
| 20260830171808 | 59 | 270 | 11.0 | 18.0 | 0.00 | 1.05 | 1.08 | 62 | 1018.3 |
| 20260830170808 | 59 | 271 | 10.0 | 15.0 | 0.00 | 1.05 | 1.08 | 60 | 1018.3 |
| 20260830165808 | 58 | 273 | 10.0 | 15.0 | 0.00 | 1.05 | 1.08 | 60 | 1018.3 |
| 20260830164808 | 58 | 263 | 8.0 | 14.0 | 0.00 | 1.05 | 1.08 | 59 | 1018.3 |
| 20260830163808 | 58 | 267 | 10.0 | 15.0 | 0.00 | 1.05 | 1.08 | 59 | 1018.3 |
| 20260830162808 | 59 | 264 | 10.0 | 16.0 | 0.00 | 1.05 | 1.08 | 57 | 1018.3 |
| 20260830161808 | 59 | 272 | 9.0 | 14.0 | 0.00 | 1.05 | 1.08 | 57 | 1018.2 |
| 20260830160810 | 58 | 270 | 10.0 | 15.0 | 0.00 | 1.05 | 1.08 | 58 | 1018.1 |
| 20260830155808 | 58 | 267 | 9.0 | 12.0 | 0.00 | 1.05 | 1.08 | 58 | 1018.1 |
| 20260830154808 | 57 | 271 | 8.0 | 13.0 | 0.00 | 1.05 | 1.08 | 58 | 1018.0 |
| 20260830153808 | 57 | 275 | 8.0 | 14.0 | 0.00 | 1.05 | 1.08 | 57 | 1018.0 |
| 20260830152808 | 57 | 274 | 8.0 | 14.0 | 0.00 | 1.05 | 1.08 | 57 | 1018.0 |
| 20260830151808 | 57 | 266 | 10.0 | 15.0 | 0.00 | 1.05 | 1.08 | 56 | 1018.0 |
| 20260830150808 | 57 | 268 | 11.0 | 16.0 | 0.00 | 1.05 | 1.08 | 54 | 1018.1 |
| 20260830145808 | 57 | 266 | 12.0 | 17.0 | 0.00 | 1.05 | 1.08 | 54 | 1018.2 |
| 20260830144808 | 57 | 252 | 11.0 | 17.0 | 0.00 | 1.05 | 1.08 | 55 | 1018.2 |
| 20260830143808 | 57 | 256 | 12.0 | 19.0 | 0.00 | 1.05 | 1.08 | 54 | 1018.2 |
| 20260830142808 | 57 | 255 | 12.0 | 18.0 | 0.00 | 1.05 | 1.08 | 56 | 1018.1 |
| 20260830141809 | 57 | 252 | 12.0 | 19.0 | 0.00 | 1.05 | 1.08 | 54 | 1018.1 |
| 20260830140810 | 57 | 242 | 11.0 | 16.0 | 0.00 | 1.05 | 1.08 | 55 | 1018.0 |
| 20260830135808 | 56 | 238 | 7.0 | 18.0 | 0.00 | 1.05 | 1.08 | 58 | 1017.9 |
| 20260830134808 | 56 | 231 | 10.0 | 16.0 | 0.00 | 1.05 | 1.08 | 57 | 1017.8 |
| 20260830133809 | 54 | 238 | 11.0 | 15.0 | 0.00 | 1.05 | 1.08 | 63 | 1017.7 |
| 20260830132808 | 55 | 229 | 10.0 | 17.0 | 0.00 | 1.05 | 1.08 | 59 | 1017.6 |
| 20260830131808 | 55 | 223 | 12.0 | 18.0 | 0.00 | 1.05 | 1.08 | 58 | 1017.5 |
| 20260830130808 | 54 | 229 | 9.0 | 28.0 | 0.00 | 1.05 | 1.08 | 60 | 1017.5 |
| 20260830125811 | 59 | 232 | 9.0 | 15.0 | 0.00 | 1.05 | 1.08 | 45 | 1017.4 |
| 20260830124808 | 59 | 238 | 5.0 | 9.0 | 0.00 | 1.05 | 1.08 | 47 | 1017.3 |
| 20260830123808 | 59 | 237 | 3.0 | 7.0 | 0.00 | 1.05 | 1.08 | 48 | 1017.3 |
| 20260830122808 | 60 | 277 | 6.0 | 10.0 | 0.00 | 1.05 | 1.08 | 47 | 1017.1 |
| 20260830121810 | 60 | 303 | 6.0 | 8.0 | 0.00 | 1.05 | 1.08 | 48 | 1017.0 |
| 20260830120807 | 61 | 309 | 5.0 | 8.0 | 0.00 | 1.05 | 1.08 | 48 | 1017.0 |
| 20260830115808 | 61 | 309 | 4.0 | 8.0 | 0.00 | 1.05 | 1.08 | 48 | 1017.0 |
| 20260830114808 | 60 | 343 | 2.0 | 6.0 | 0.00 | 1.05 | 1.08 | 48 | 1017.0 |
| 20260830113808 | 60 | 337 | 1.0 | 5.0 | 0.00 | 1.05 | 1.08 | 48 | 1017.0 |
| 20260830112808 | 60 | 348 | 1.0 | 4.0 | 0.00 | 1.05 | 1.08 | 48 | 1017.0 |
| 20260830111808 | 60 | 354 | 1.0 | 4.0 | 0.00 | 1.05 | 1.08 | 48 | 1017.1 |
| 20260830110808 | 61 | 348 | 1.0 | 5.0 | 0.00 | 1.05 | 1.08 | 48 | 1017.1 |
| 20260830105808 | 61 | 340 | 1.0 | 8.0 | 0.00 | 1.05 | 1.08 | 47 | 1017.1 |
| 20260830104808 | 61 | 339 | 1.0 | 6.0 | 0.00 | 1.05 | 1.08 | 48 | 1017.2 |
| 20260830103808 | 60 | 0 | 0.0 | 4.0 | 0.00 | 1.05 | 1.08 | 47 | 1017.2 |
| 20260830102808 | 61 | 12 | 1.0 | 5.0 | 0.00 | 1.05 | 1.08 | 46 | 1017.2 |
| 20260830101808 | 61 | 17 | 2.0 | 7.0 | 0.00 | 1.05 | 1.08 | 47 | 1017.2 |
| 20260830100808 | 62 | 3 | 2.0 | 8.0 | 0.00 | 1.05 | 1.08 | 45 | 1017.3 |
| 20260830095808 | 62 | 330 | 4.0 | 10.0 | 0.00 | 1.05 | 1.08 | 44 | 1017.3 |
| 20260830094808 | 61 | 338 | 5.0 | 9.0 | 0.00 | 1.05 | 1.08 | 42 | 1017.3 |
| 20260830093808 | 61 | 345 | 2.0 | 9.0 | 0.00 | 1.05 | 1.08 | 40 | 1017.1 |
| 20260830092808 | 62 | 11 | 3.0 | 8.0 | 0.00 | 1.05 | 1.08 | 39 | 1017.1 |
| 20260830091808 | 62 | 335 | 3.0 | 8.0 | 0.00 | 1.05 | 1.08 | 39 | 1017.1 |
| 20260830090808 | 62 | 333 | 2.0 | 8.0 | 0.00 | 1.05 | 1.08 | 38 | 1017.1 |
| 20260830085808 | 63 | 323 | 5.0 | 9.0 | 0.00 | 1.05 | 1.08 | 38 | 1017.1 |
| 20260830084808 | 63 | 322 | 5.0 | 9.0 | 0.00 | 1.05 | 1.08 | 37 | 1017.0 |
| 20260830083808 | 63 | 325 | 4.0 | 8.0 | 0.00 | 1.05 | 1.08 | 35 | 1017.0 |
| 20260830082808 | 63 | 343 | 3.0 | 10.0 | 0.00 | 1.05 | 1.08 | 31 | 1016.9 |
| 20260830081808 | 63 | 321 | 6.0 | 14.0 | 0.00 | 1.05 | 1.08 | 33 | 1016.9 |
| 20260830080607 | 63 | 302 | 9.0 | 16.0 | 0.00 | 1.05 | 1.08 | 32 | 1016.7 |